Effective Sunday, March 17, 2024, the National Weather Service National Data Buoy Center will discontinue its Dial-A-Buoy Interactive Voice Response system. For more information, see Service Change Notice 24-06 (PDF).

Station 46014 (LLNR 445) - PT ARENA - 19NM North of Point Arena, CA Image indicating link to RSS feed of recent meteorological observations for station 46014


Conditions at 46014 as of
(9:30 am PST)
1730 GMT on 02/29/2024:
     

Click on the graph icon in the table below to see a time series plot of the last five days of that observation.

5-day plot - Wind Direction Wind Direction (WDIR):SSW ( 210 deg true )
5-day plot - Wind Speed Wind Speed (WSPD): 23.3 kts
5-day plot - Wind Gust Wind Gust (GST): 31.1 kts
5-day plot - Atmospheric Pressure Atmospheric Pressure (PRES):29.88 in
5-day plot - Air Temperature Air Temperature (ATMP): 54.3 °F
5-day plot - Water Temperature Water Temperature (WTMP): 54.9 °F
5-day plot - Dew Point Dew Point (DEWP): 53.1 °F
5-day plot - Wind Speed at 10 Meters Wind Speed at 10 meters (WSPD10M): 25.3 kts
5-day plot - Wind Speed at 20 Meters Wind Speed at 20 meters (WSPD20M): 27.2 kts
5-day plot -  Wind Speed, Wind Gust and Atmospheric Pressure Combined plot of Wind Speed, Gust, and Air Pressure
Supplemental Measurements
Highest 1-minute Wind Speed
Time (PST)5-day plot - 1-Minute Wind Speed WSPD 5-day plot - 1-Minute Wind Direction WDIR
9:27 am 25.3 kts-
Previous observations
TIME
(PST)
5-day plot - Wind Direction
WDIR
 
5-day plot - Wind Speed
WSPD
kts
5-day plot - Wind Gust
GST
kts
5-day plot - Wave Height
WVHT
ft
5-day plot - Dominant Wave Period
DPD
sec
5-day plot - Average Wave Period
APD
sec
5-day plot - Mean Wave Direction
MWD
 
5-day plot - Atmospheric Pressure
PRES
in
5-day plot - Pressure Tendency
PTDY
in
5-day plot - Air Temperature
ATMP
°F
5-day plot - Water Temperature
WTMP
°F
5-day plot - Dew Point
DEWP
°F
5-day plot - Salinity
SAL
psu
5-day plot - Visibility
VIS
nmi
5-day plot - Tide (above MLLW)
TIDE
ft
2024-02-29 09:20 am S 23.3 31.1 9.8 86.4WNW29.85- 54.3 54.9 52.5---
2024-02-29 09:10 am S 25.3 31.1----29.85- 54.5 54.9 52.3---
2024-02-29 09:00 am S 23.3 31.1----29.84-0.01 54.7 54.9 52.2---
2024-02-29 08:50 am S 25.3 31.1 9.8 106.5 NW29.85- 54.7 54.9 52.3---
2024-02-29 08:40 am S 25.3 33.0----29.84- 54.3 54.9 52.3---
2024-02-29 08:30 am S 25.3 33.0----29.84- 54.7 54.9 52.2---
2024-02-29 08:20 am S 23.3 31.1 9.2 96.3WNW29.85- 54.7 55.0 52.2---
2024-02-29 08:10 am S 21.4 27.2 9.2-6.3WNW29.85- 54.3 55.0 52.9---
2024-02-29 08:00 am S 23.3 29.1----29.85-0.01 54.3 54.9 52.7---
2024-02-29 07:50 am S 23.3 29.1 9.2 116.4 NW29.85- 54.1 55.0 52.5---
2024-02-29 07:40 am S 21.4 29.1----29.86- 54.7 55.0 52.3---
2024-02-29 07:30 am S 23.3 29.1----29.85- 54.5 55.0 52.3---
2024-02-29 07:20 am S 21.4 29.1 8.9 116.4 NW29.85- 54.7 55.0 52.5---
2024-02-29 07:10 am S 21.4 27.2 8.9-6.4 NW29.85- 54.5 55.0 52.3---
2024-02-29 07:00 am S 21.4 29.1----29.85-0.02 54.3 55.0 52.7---
2024-02-29 06:50 am S 21.4 27.2 8.5 106.3 NW29.85- 54.0 55.0 52.9---
2024-02-29 06:40 am S 21.4 25.3 8.5-6.3 NW29.85- 53.8 55.0 52.9---
2024-02-29 06:30 am S 21.4 27.2----29.86- 53.6 55.0 52.7---
2024-02-29 06:20 am S 23.3 27.2 7.9 116.2 NW29.85- 53.6 55.0 52.3---
2024-02-29 06:10 am S 23.3 29.1 7.9-6.2 NW29.85- 53.8 55.0 52.0---
2024-02-29 06:00 amSSW 21.4 27.2----29.86-0.04 54.1 55.0 52.5---
2024-02-29 05:50 amSSW 21.4 29.1 6.9 116.0WNW29.86- 54.0 55.0 52.5---
2024-02-29 05:40 am S 21.4 27.2----29.86- 54.1 55.0 52.5---
2024-02-29 05:30 amSSW 21.4 29.1----29.86- 54.0 55.0 52.3---
2024-02-29 05:20 am S 21.4 27.2 6.9 95.9 NW29.85- 53.8 55.0 52.7---
2024-02-29 05:10 am S 21.4 27.2 6.9-5.9 NW29.86- 54.0 55.0 52.7---
2024-02-29 05:00 am S 21.4 29.1----29.86-0.06 53.8 55.0 52.5---
2024-02-29 04:50 am S 21.4 27.2 6.6 105.8 NW29.86- 53.6 55.0 52.7---
2024-02-29 04:40 am S 21.4 27.2 6.6-5.8 NW29.86- 53.6 55.0 52.3---
2024-02-29 04:30 am S 21.4 27.2----29.87- 54.0 55.0 52.2---
2024-02-29 04:20 am S 21.4 25.3 6.6 106.0 NW29.87- 54.1 55.0 52.2---
2024-02-29 04:10 am S 19.4 25.3 6.6-6.0 NW29.87- 54.1 55.0 52.2---
2024-02-29 04:00 am S 19.4 25.3----29.87-0.07 54.0 55.0 52.2---
2024-02-29 03:50 am S 19.4 23.3 6.2 105.6WNW29.88- 54.0 55.0 52.2---
2024-02-29 03:40 am S 19.4 25.3----29.88- 53.8 55.0 52.2---
2024-02-29 03:30 am S 19.4 25.3----29.88- 53.6 55.0 52.2---
2024-02-29 03:20 am S 21.4 25.3 5.6 115.2 NW29.88- 53.4 55.0 52.2---
2024-02-29 03:10 am S 19.4 23.3----29.89- 53.1 55.0 52.2---
2024-02-29 03:00 am S 19.4 25.3----29.89-0.06 53.1 55.0 52.5---
2024-02-29 02:50 am S 19.4 25.3 5.9 115.6 NW29.89- 52.9 55.0 52.7---
2024-02-29 02:40 amSSW 19.4 27.2----29.90- 53.1 55.0 52.9---
2024-02-29 02:30 am S 17.5 23.3----29.91- 53.2 55.0 53.1---
2024-02-29 02:20 am S 17.5 23.3 5.9 116.0 NW29.91- 53.1 55.0 52.9---
2024-02-29 02:10 am S 17.5 23.3----29.91- 53.1 55.0 52.7---
2024-02-29 02:00 am S 17.5 23.3----29.92-0.06 53.2 55.0 52.5---
2024-02-29 01:50 am S 17.5 23.3 5.6 115.9 NW29.92- 53.4 55.0 52.3---
2024-02-29 01:40 am S 17.5 23.3----29.92- 53.4 55.0 52.2---
2024-02-29 01:30 am S 17.5 21.4----29.93- 53.4 55.0 52.2---
2024-02-29 01:20 am S 17.5 21.4 5.6 105.8 NW29.93- 53.2 55.0 52.2---
2024-02-29 01:10 am S 17.5 21.4----29.93- 53.2 55.0 52.5---
2024-02-29 01:00 am S 17.5 23.3----29.94-0.04 53.2 55.0 52.5---
2024-02-29 12:50 am S 17.5 21.4 5.2 115.9WNW29.94- 53.1 55.0 52.5---
2024-02-29 12:40 am S 17.5 21.4----29.94- 52.9 55.0 52.5---
2024-02-29 12:30 am S 17.5 21.4----29.95- 53.1 55.0 52.7---
2024-02-29 12:20 am S 15.5 19.4 5.6 116.3 NW29.95- 53.1 55.0 52.7---
2024-02-29 12:10 am S 15.5 19.4 5.6-6.3 NW29.95- 52.9 55.0 52.3---
2024-02-29 12:00 am S 15.5 19.4----29.95-0.04 52.9 55.0 52.2---
2024-02-28 11:50 pm S 13.6 17.5 5.2 106.0 NW29.96- 52.7 55.0 52.0---
2024-02-28 11:40 pm S 13.6 19.4----29.97- 52.7 55.0 52.2---
2024-02-28 11:30 pm S 13.6 17.5----29.97- 52.7 55.0 52.2---
2024-02-28 11:20 pm S 13.6 17.5 5.6 107.0 NW29.97- 52.5 55.0 52.2---
2024-02-28 11:10 pm S 15.5 19.4 5.6-7.0 NW29.98- 52.5 55.0 52.2---
2024-02-28 11:00 pm S 13.6 17.5----29.97-0.01 52.7 55.0 52.3---
2024-02-28 10:50 pm S 13.6 19.4 5.9 107.4 NW29.98- 52.7 55.0 52.3---
2024-02-28 10:40 pm S 11.7 15.5----29.98- 52.7 55.0 52.5---
2024-02-28 10:30 pm S 13.6 15.5----29.98- 52.5 55.0 52.3---
2024-02-28 10:20 pm S 13.6 15.5 5.6 117.4 NW29.98- 52.5 55.0 52.3---
2024-02-28 10:10 pmSSE 11.7 17.5 5.6-7.4 NW29.98- 52.3 55.0 52.0---
2024-02-28 10:00 pmSSE 11.7 17.5----29.98+0.00 52.3 55.2 52.0---
2024-02-28 09:50 pmSSE 11.7 15.5 5.6 117.8 NW29.98- 52.3 55.2 52.0---
2024-02-28 09:40 pmSSE 11.7 15.5----29.98- 52.2 55.2 52.0---
2024-02-28 09:30 pmSSE 11.7 15.5----29.98- 52.0 55.2 51.6---
2024-02-28 09:20 pmSSE 11.7 15.5 5.6 118.0 NW29.98- 52.2 55.2 51.8---
2024-02-28 09:10 pmSSE 11.7 13.6----29.99- 52.2 55.2 51.6---
2024-02-28 09:00 pm S 9.7 13.6----29.99+0.00 52.0 55.2 51.3---
2024-02-28 08:50 pm S 9.7 13.6 5.9 118.1 NW29.98- 52.0 55.2 51.3---
2024-02-28 08:40 pm S 9.7 13.6----29.98- 51.6 55.2 51.1---
2024-02-28 08:30 pm S 9.7 13.6----29.98- 51.8 55.2 51.4---
2024-02-28 08:20 pm S 9.7 13.6 5.6 118.3 NW29.98- 51.8 55.2 51.4---
2024-02-28 08:10 pm S 9.7 13.6----29.98- 51.8 55.2 51.4---
2024-02-28 08:00 pm S 9.7 11.7----29.98-0.01 51.6 55.2 51.3---
2024-02-28 07:50 pm S 9.7 11.7 6.2 108.3 NW29.98- 51.4 55.2 50.9---
2024-02-28 07:40 pm S 7.8 11.7----29.98- 51.6 55.2 51.3---
2024-02-28 07:30 pmSSW 7.8 11.7----29.98- 51.6 55.2 51.3---
2024-02-28 07:20 pmSSW 7.8 11.7 5.9 118.5 NW29.98- 51.6 55.2 51.1---
2024-02-28 07:10 pmSSW 7.8 11.7 5.9-8.5 NW29.98- 51.6 55.4 50.9---
2024-02-28 07:00 pmSSW 7.8 11.7----29.98-0.03 51.8 55.4 50.9---
2024-02-28 06:50 pmSSW 7.8 9.7 5.9 118.3 NW29.98- 51.6 55.4 50.5---
2024-02-28 06:40 pm S 7.8 11.7----29.98- 51.6 55.4 50.5---
2024-02-28 06:30 pm S 5.8 11.7----29.99- 51.4 55.6 50.2---
2024-02-28 06:20 pmSSW 5.8 9.7 5.9 118.5 NW29.98- 51.4 55.6 50.2---
2024-02-28 06:10 pmSSW 5.8 11.7----29.98- 51.3 55.6 50.2---
2024-02-28 06:00 pmSSW 5.8 9.7----29.99-0.04 51.4 55.6 50.4---
2024-02-28 05:50 pm SW 5.8 7.8 5.6 118.3 NW29.99- 51.4 55.8 50.5---
2024-02-28 05:40 pmWSW 5.8 7.8 5.6-8.3 NW29.99- 51.6 55.8 50.9---
2024-02-28 05:30 pmWSW 5.8 7.8----29.99- 51.6 55.8 50.7---
2024-02-28 05:20 pm SW 5.8 7.8 5.2 138.1 NW29.99- 51.8 55.8 50.7---
2024-02-28 05:10 pm SW 3.9 7.8 5.2-8.1 NW30.00- 51.6 55.6 50.7---
2024-02-28 05:00 pmWSW 5.8 9.7----30.00-0.04 51.4 55.4 50.5---
2024-02-28 04:50 pm SW 3.9 7.8 5.6 117.9 NW30.00- 51.6 55.6 50.9---
2024-02-28 04:40 pmWSW 5.8 9.7----30.00- 51.6 55.6 50.5---
2024-02-28 04:30 pm W 5.8 9.7----30.01- 51.6 55.8 50.4---
2024-02-28 04:20 pmWSW 3.9 7.8 5.6 128.1 NW30.01- 51.6 55.9 50.4---
2024-02-28 04:10 pmWSW 5.8 7.8 5.6-8.1 NW30.01- 51.6 55.9 50.0---
2024-02-28 04:00 pm W 5.8 7.8----30.01-0.05 51.8 55.9 50.0---
2024-02-28 03:50 pm W 5.8 9.7 5.6 118.1 NW30.01- 52.0 55.9 50.0---
2024-02-28 03:40 pm W 5.8 9.7----30.01- 52.0 55.9 49.6---
2024-02-28 03:30 pm W 5.8 7.8----30.02- 52.3 55.8 49.6---
2024-02-28 03:20 pm W 3.9 7.8 5.6 117.9 NW30.01- 52.7 55.9 49.6---
2024-02-28 03:10 pm W 5.8 7.8----30.02- 52.7 55.9 49.3---
2024-02-28 03:00 pmWNW 5.8 7.8----30.02-0.05 53.1 55.8 49.1---
2024-02-28 02:50 pmWNW 5.8 7.8 5.9 128.3NNW30.03- 53.1 55.8 48.6---
2024-02-28 02:40 pmWNW 3.9 5.8 5.9-8.3NNW30.03- 53.1 55.8 48.6---
2024-02-28 02:30 pmWNW 3.9 7.8----30.03- 53.1 55.8 48.6---
2024-02-28 02:20 pm NW 5.8 7.8 6.6 118.3 NW30.03- 53.1 55.8 48.6---
2024-02-28 02:10 pmWNW 5.8 9.7 6.6-8.3 NW30.04- 53.1 55.6 48.6---
2024-02-28 02:00 pm NW 5.8 9.7----30.04-0.04 52.9 55.6 48.4---
2024-02-28 01:50 pm NW 5.8 9.7 6.2 118.0 NW30.04- 52.9 55.6 48.6---
2024-02-28 01:40 pm NW 5.8 7.8 6.2-8.0 NW30.05- 52.9 55.6 48.6---
2024-02-28 01:30 pm NW 7.8 9.7----30.05- 52.7 55.6 48.2---
2024-02-28 01:20 pm NW 7.8 9.7 6.2 118.2 NW30.06- 52.9 55.4 48.6---
2024-02-28 01:10 pm NW 7.8 11.7 6.2-8.2 NW30.06- 52.9 55.4 48.4---
2024-02-28 01:00 pm NW 9.7 11.7----30.06-0.02 52.9 55.4 48.4---
2024-02-28 12:50 pm NW 9.7 11.7 5.9 127.6 NW30.06- 53.1 55.4 48.4---
2024-02-28 12:40 pm NW 9.7 11.7----30.07- 53.1 55.4 48.0---
2024-02-28 12:30 pm NW 9.7 11.7----30.07- 52.9 55.4 47.3---
2024-02-28 12:20 pm NW 7.8 11.7 6.6 107.7NNW30.07- 52.7 55.4 47.5---
2024-02-28 12:10 pm NW 5.8 9.7 6.6-7.7NNW30.07- 52.5 55.2 47.1---
2024-02-28 12:00 pm NW 5.8 9.7----30.07-0.01 52.3 55.2 46.6---
2024-02-28 11:50 am NW 5.8 7.8 6.9 118.0 NW30.08- 52.3 55.0 46.4---
2024-02-28 11:40 am NW 5.8 7.8----30.08- 52.2 55.2 46.2---
2024-02-28 11:30 am NW 3.9 7.8----30.08- 52.2 55.0 46.2---
2024-02-28 11:20 amWNW 3.9 7.8 6.2 117.7 NW30.08- 52.5 55.2 46.4---
2024-02-28 11:10 am N 1.9 3.9 6.2-7.7 NW30.08- 52.7 55.0 46.8---
2024-02-28 11:00 amSSE 1.9 3.9----30.08-0.01 52.3 55.0 46.6---
2024-02-28 10:50 am SE 1.9 5.8 7.2 127.8 NW30.08- 52.2 55.0 46.4---
2024-02-28 10:40 amESE 3.9 5.8----30.08- 51.8 55.0 46.2---
2024-02-28 10:30 amESE 3.9 7.8----30.08- 51.6 55.0 46.2---
2024-02-28 10:20 am E 3.9 7.8 7.2 127.8NNW30.08- 51.4 55.0 46.2---
2024-02-28 10:10 amESE 3.9 7.8----30.08- 51.4 55.0 46.4---
2024-02-28 10:00 amESE 5.8 9.7----30.08+0.00 51.3 54.9 46.4---
2024-02-28 09:50 amESE 5.8 9.7 7.2 117.7NNW30.08- 51.3 54.9 46.4---

Detailed Wave Summary
for 46014 as of (9:10 am PST)
1710 GMT on 02/29/2024:

These wave data are displayed in rounded times.

     

Click on the graph icon in the table below to see a time series plot of the last five days of that observation.

5-day plot - Significant Wave Height Significant Wave Height (WVHT): 9.8 ft
5-day plot - Swell Height Swell Height (SwH): 5.9 ft
5-day plot - Swell Period Swell Period (SwP): 10.0 sec
5-day plot - Swell Direction Swell Direction (SwD):WNW
5-day plot - Wind Wave Height Wind Wave Height (WWH): 7.9 ft
5-day plot - Wind Wave Period Wind Wave Period (WWP): 8.3 sec
5-day plot - Wind Wave Direction Wind Wave Direction (WWD):WNW
5-day plot - Wave Steepness Wave Steepness (STEEPNESS): STEEP
5-day plot - Average Wave Period Average Wave Period (APD): 6.4 sec
Previous observations
TIME
(PST)
5-day plot - Wave Height
WVHT
ft
5-day plot - Swell Height
SwH
ft
5-day plot - Swell Period
SwP
sec
5-day plot - Swell Direction
SwD
 
5-day plot - Wind Wave Height
WWH
ft
5-day plot - Wind Wave Period
WWP
sec
5-day plot - Wind Wave Direction
WWD
 
5-day plot - Wave Steepness
STEEPNESS
 
5-day plot - Average Wave Period
APD
sec
2024-02-29 08:40 am 9.8 6.2 10.0 NW 7.5 8.3 WNW AVERAGE 6.5
2024-02-29 08:10 am 9.2 5.2 9.1WNW 7.2 7.7 WNW AVERAGE 6.3
2024-02-29 07:40 am 9.2 5.6 10.8 NW 7.2 8.3 WNW AVERAGE 6.4
2024-02-29 07:10 am 8.9 5.6 10.8 NW 6.9 8.3 NW AVERAGE 6.4
2024-02-29 06:40 am 8.5 5.2 10.0 NW 6.9 8.3 WNW AVERAGE 6.3
2024-02-29 06:10 am 7.9 4.9 10.8 NW 6.2 5.6 SW AVERAGE 6.2
2024-02-29 05:40 am 6.9 3.9 10.8WNW 5.6 5.0 SSW AVERAGE 6.0
2024-02-29 05:10 am 6.9 4.6 9.1 NW 5.2 6.2 W AVERAGE 5.9
2024-02-29 04:40 am 6.6 4.3 10.0 NW 4.9 7.1 WNW AVERAGE 5.8
2024-02-29 04:10 am 6.6 4.6 10.0 NW 4.6 5.0 SW AVERAGE 6.0
2024-02-29 03:40 am 6.2 4.3 10.0WNW 4.3 4.5 SW SWELL 5.6
2024-02-29 03:10 am 5.6 3.6 10.8 NW 4.3 4.2 SSW AVERAGE 5.2
2024-02-29 02:40 am 5.9 4.3 10.8 NW 4.3 4.2 SW SWELL 5.6
2024-02-29 02:10 am 5.9 4.6 10.8 NW 3.3 4.2 SW SWELL 6.0
2024-02-29 01:40 am 5.6 4.9 11.4 NW 3.3 3.7 SSW SWELL 5.9
2024-02-29 01:10 am 5.6 4.6 10.0 NW 3.3 5.9 NW SWELL 5.8
2024-02-29 12:40 am 5.2 4.6 10.8WNW 2.6 5.9 NW SWELL 5.9
2024-02-29 12:10 am 5.6 4.9 10.8 NW 2.6 3.0 S SWELL 6.3
2024-02-28 11:40 pm 5.2 4.9 10.0 NW 2.3 2.9 S SWELL 6.0
2024-02-28 11:10 pm 5.6 5.2 10.0 NW 2.0 2.9 SSW SWELL 7.0
2024-02-28 10:40 pm 5.9 5.6 10.0 NW 2.0 5.6 NW SWELL 7.4
2024-02-28 10:10 pm 5.6 5.2 11.4 NW 1.6 5.6 NW SWELL 7.4
2024-02-28 09:40 pm 5.6 5.6 11.4 NW 1.6 4.8 WNW SWELL 7.8
2024-02-28 09:10 pm 5.6 5.2 11.4 NW 1.3 4.8 WNW SWELL 8.0
2024-02-28 08:40 pm 5.9 5.6 10.8 NW 1.3 4.3 WNW SWELL 8.1
2024-02-28 08:10 pm 5.6 5.2 10.8 NW 1.0 3.7 W SWELL 8.3
2024-02-28 07:40 pm 6.2 5.9 10.0 NW 1.0 4.0 W SWELL 8.3
2024-02-28 07:10 pm 5.9 5.9 11.4 NW 0.7 3.8 WNW SWELL 8.5
2024-02-28 06:40 pm 5.9 5.6 11.4 NW 1.0 3.2 WNW SWELL 8.3
2024-02-28 06:10 pm 5.9 5.6 10.8 NW 1.0 3.0 NW SWELL 8.5
2024-02-28 05:40 pm 5.6 5.6 11.4 NW 1.0 3.8 WNW SWELL 8.3
2024-02-28 05:10 pm 5.2 5.2 12.9 NW 1.0 3.7 WNW SWELL 8.1
2024-02-28 04:40 pm 5.6 5.2 11.4 NW 1.0 3.3 WNW SWELL 7.9
2024-02-28 04:10 pm 5.6 5.6 12.1 NW 1.0 3.7 NNW SWELL 8.1
2024-02-28 03:40 pm 5.6 5.6 11.4 NW 1.0 3.7 NW SWELL 8.1
2024-02-28 03:10 pm 5.6 5.2 11.4 NW 1.0 3.3 NW SWELL 7.9
2024-02-28 02:40 pm 5.9 5.9 12.1NNW 1.0 3.1 NW SWELL 8.3
2024-02-28 02:10 pm 6.6 6.2 11.4 NW 1.3 3.7 NW SWELL 8.3
2024-02-28 01:40 pm 6.2 6.2 10.8 NW 1.3 3.3 WNW SWELL 8.0
2024-02-28 01:10 pm 6.2 6.2 11.4 NW 1.3 3.4 NW SWELL 8.2
2024-02-28 12:40 pm 5.9 5.6 12.1 NW 1.6 4.3 NW SWELL 7.6
2024-02-28 12:10 pm 6.6 6.2 10.0NNW 1.3 3.3 NW SWELL 7.7
2024-02-28 11:40 am 6.9 6.6 11.4 NW 1.3 3.8 NNW SWELL 8.0
2024-02-28 11:10 am 6.2 6.2 11.4 NW 1.3 3.8 NW SWELL 7.7
2024-02-28 10:40 am 7.2 6.9 12.1 NW 1.3 3.7 NW SWELL 7.8
2024-02-28 10:10 am 7.2 7.2 12.1NNW 1.6 3.8 NW SWELL 7.8

Plot of wave energy versus frequency (and period)